FW3830 Weather Reports


time (UTC)temp
C
wind
direction
speed
KPH
gust
KPH
rain 1hr
cm
rain 24hr
cm
rain mn
cm
humidity
%
barometer
mb
20260504150603 10 270 4.8 9.7 0.00 0.00 0.00 74 1014.0
20260504140543 6 293 1.6 4.8 0.00 0.00 0.00 86 1013.6
20260504130602 6 338 1.6 3.2 0.00 0.00 0.00 87 1014.1
20260504110541 6 315 3.2 4.8 0.00 0.00 0.00 86 1014.4
20260504100542 6 293 4.8 6.4 0.00 0.00 0.00 85 1014.3
20260504081542 6 293 3.2 3.2 0.00 0.00 0.00 85 1014.2
20260504080541 6 293 3.2 4.8 0.00 0.00 0.00 84 1014.0
20260504050543 10 270 3.2 4.8 0.00 0.00 0.00 79 1012.8
20260504045541 10 270 1.6 3.2 0.00 0.00 0.00 78 1012.8
20260504044542 10 270 3.2 4.8 0.00 0.00 0.00 78 1012.7
20260504043542 10 270 3.2 4.8 0.00 0.00 0.00 75 1012.7
20260504042542 10 0.0 3.2 0.00 0.00 0.00 74 1012.7
20260504041541 11 270 1.6 3.2 0.00 0.00 0.00 73 1012.6
20260504040541 11 270 1.6 4.8 0.00 0.00 0.00 71 1012.3
20260504035622 11 0.0 3.2 0.00 0.00 0.00 69 1012.2
20260504034603 11 0.0 1.6 0.00 0.00 0.00 70 1012.3
20260504033541 12 270 1.6 4.8 0.00 0.00 0.00 70 1012.1
20260504032541 12 270 3.2 6.4 0.00 0.00 0.00 66 1012.0
20260504031541 13 0.0 3.2 0.00 0.00 0.00 65 1012.2
20260504030602 13 270 1.6 4.8 0.00 0.00 0.00 65 1011.8
20260504025541 14 270 1.6 3.2 0.00 0.00 0.00 64 1011.8
20260504024601 15 270 1.6 3.2 0.00 0.00 0.00 63 1012.0
20260504023542 15 270 3.2 4.8 0.00 0.00 0.00 63 1012.1
20260504022541 15 270 3.2 4.8 0.00 0.00 0.00 62 1012.1
20260504021541 16 270 3.2 4.8 0.00 0.00 0.00 63 1012.2
20260504020601 16 270 3.2 4.8 0.00 0.00 0.00 60 1012.1
20260504015542 16 270 3.2 4.8 0.00 0.00 0.00 59 1012.1
20260504014542 17 270 3.2 4.8 0.00 0.00 0.00 56 1012.1
20260504013541 18 270 3.2 4.8 0.00 0.00 0.00 52 1012.1
20260504012541 19 0.0 3.2 0.00 0.00 0.00 50 1012.5
20260504011542 20 0.0 1.6 0.00 0.00 0.00 45 1012.8
20260504010541 21 0.0 3.2 0.00 0.00 0.00 43 1012.9
20260504005542 21 293 3.2 6.4 0.00 0.00 0.00 40 1012.9
20260504004542 22 270 3.2 6.4 0.00 0.00 0.00 37 1013.1
20260504003601 22 270 4.8 11.3 0.00 0.00 0.00 37 1013.2
20260504002541 22 270 3.2 9.7 0.00 0.00 0.00 34 1013.2
20260504001542 22 270 3.2 11.3 0.00 0.00 0.00 35 1013.4
20260504000541 23 338 6.4 12.9 0.00 0.00 0.00 33 1013.6
20260503235541 23 315 6.4 14.5 0.00 0.00 0.00 31 1013.6
20260503234603 23 338 6.4 12.9 0.00 0.00 0.00 30 1013.5
20260503233541 23 338 4.8 11.3 0.00 0.00 0.00 31 1013.7
20260503232541 23 270 6.4 12.9 0.00 0.00 0.00 32 1013.6
20260503231601 23 315 4.8 14.5 0.00 0.00 0.00 32 1013.7
20260503230602 24 315 6.4 17.7 0.00 0.00 0.00 30 1013.9
20260503225541 23 293 6.4 16.1 0.00 0.00 0.00 30 1014.0
20260503224541 23 0 6.4 16.1 0.00 0.00 0.00 30 1014.1
20260503223601 23 315 6.4 17.7 0.00 0.00 0.00 32 1014.3
20260503222541 23 315 8.0 16.1 0.00 0.00 0.00 30 1014.5
20260503221541 23 270 6.4 16.1 0.00 0.00 0.00 29 1014.4
20260503220541 23 270 6.4 14.5 0.00 0.00 0.00 31 1014.6
20260503215601 23 338 8.0 17.7 0.00 0.00 0.00 30 1014.8
20260503214541 23 293 6.4 14.5 0.00 0.00 0.00 31 1014.9
20260503213540 23 338 6.4 12.9 0.00 0.00 0.00 31 1015.2
20260503212542 23 270 6.4 14.5 0.00 0.00 0.00 30 1015.4
20260503211541 23 0 6.4 14.5 0.00 0.00 0.00 31 1015.5
20260503210540 22 0 8.0 17.7 0.00 0.00 0.00 31 1015.6
20260503205540 22 225 8.0 17.7 0.00 0.00 0.00 30 1015.8
20260503204541 22 338 9.7 17.7 0.00 0.00 0.00 31 1015.8
20260503203541 22 0 8.0 16.1 0.00 0.00 0.00 31 1016.2
20260503202541 22 315 6.4 14.5 0.00 0.00 0.00 33 1016.1
20260503201541 22 315 6.4 16.1 0.00 0.00 0.00 37 1016.0
20260503200601 22 270 8.0 16.1 0.00 0.00 0.00 33 1016.3
20260503195540 22 0 4.8 12.9 0.00 0.00 0.00 36 1016.3
20260503194540 21 293 6.4 17.7 0.00 0.00 0.00 38 1016.4
20260503193540 21 293 6.4 12.9 0.00 0.00 0.00 41 1016.5
20260503192541 20 270 6.4 14.5 0.00 0.00 0.00 41 1016.6
20260503191541 20 293 6.4 16.1 0.00 0.00 0.00 42 1016.7
20260503190540 19 293 6.4 16.1 0.00 0.00 0.00 43 1016.9
20260503185601 18 270 8.0 16.1 0.00 0.00 0.00 42 1016.9
20260503184541 18 270 6.4 16.1 0.00 0.00 0.00 43 1017.0
20260503183540 18 270 6.4 19.3 0.00 0.00 0.00 44 1017.2
20260503182541 18 270 8.0 19.3 0.00 0.00 0.00 43 1017.3
20260503181542 17 270 8.0 17.7 0.00 0.00 0.00 46 1017.2
20260503180543 16 270 9.7 19.3 0.00 0.00 0.00 47 1017.3
20260503175542 16 270 8.0 17.7 0.00 0.00 0.00 47 1017.2
20260503174542 16 270 6.4 14.5 0.00 0.00 0.00 52 1017.2
20260503173542 15 270 9.7 20.9 0.00 0.00 0.00 51 1017.1
20260503172543 15 270 9.7 16.1 0.00 0.00 0.00 53 1017.2
20260503171542 14 270 9.7 22.5 0.00 0.00 0.00 54 1017.3
20260503170542 13 270 6.4 17.7 0.00 0.00 0.00 56 1017.2